Year,Month,Day,Hour,Minute,Value (Times are PST for temperature in C)
2009,04,03,00,00,4.10
2009,04,03,00,01,4.10
2009,04,03,00,02,4.00
2009,04,03,00,03,4.00
2009,04,03,00,04,4.00
2009,04,03,00,05,3.90
2009,04,03,00,06,3.90
2009,04,03,00,07,3.90
2009,04,03,00,08,4.00
2009,04,03,00,09,4.00
2009,04,03,00,10,4.00
2009,04,03,00,11,4.00
2009,04,03,00,12,3.90
2009,04,03,00,13,4.00
2009,04,03,00,14,4.00
2009,04,03,00,15,4.00
2009,04,03,00,16,4.00
2009,04,03,00,17,3.90
2009,04,03,00,18,3.90
2009,04,03,00,19,3.90
2009,04,03,00,20,3.90
2009,04,03,00,21,3.90
2009,04,03,00,22,3.90
2009,04,03,00,23,3.90
2009,04,03,00,24,3.90
2009,04,03,00,25,3.90
2009,04,03,00,26,3.90
2009,04,03,00,27,3.80
2009,04,03,00,28,3.80
2009,04,03,00,29,3.80
2009,04,03,00,30,3.80
2009,04,03,00,31,3.80
2009,04,03,00,32,3.80
2009,04,03,00,33,3.80
2009,04,03,00,34,3.70
2009,04,03,00,35,3.70
2009,04,03,00,36,3.70
2009,04,03,00,37,3.70
2009,04,03,00,38,3.70
2009,04,03,00,39,3.70
2009,04,03,00,40,3.70
2009,04,03,00,41,3.70
2009,04,03,00,42,3.70
2009,04,03,00,43,3.80
2009,04,03,00,44,3.80
2009,04,03,00,45,3.80
2009,04,03,00,46,3.80
2009,04,03,00,47,3.80
2009,04,03,00,48,3.70
2009,04,03,00,49,3.70
2009,04,03,00,50,3.70
2009,04,03,00,51,3.70
2009,04,03,00,52,3.70
2009,04,03,00,53,3.70
2009,04,03,00,54,3.70
2009,04,03,00,55,3.70
2009,04,03,00,56,3.70
2009,04,03,00,57,3.70
2009,04,03,00,58,3.70
2009,04,03,00,59,3.80
2009,04,03,01,00,3.80
2009,04,03,01,01,3.80
2009,04,03,01,02,3.80
2009,04,03,01,03,3.80
2009,04,03,01,04,3.80
2009,04,03,01,05,3.80
2009,04,03,01,06,3.80
2009,04,03,01,07,3.80
2009,04,03,01,08,3.80
2009,04,03,01,09,3.80
2009,04,03,01,10,3.80
2009,04,03,01,11,3.70
2009,04,03,01,12,3.70
2009,04,03,01,13,3.70
2009,04,03,01,14,3.70
2009,04,03,01,15,3.70
2009,04,03,01,16,3.80
2009,04,03,01,17,3.80
2009,04,03,01,18,3.80
2009,04,03,01,19,3.80
2009,04,03,01,20,3.80
2009,04,03,01,21,3.80
2009,04,03,01,22,3.80
2009,04,03,01,23,3.70
2009,04,03,01,24,3.70
2009,04,03,01,25,3.70
2009,04,03,01,26,3.70
2009,04,03,01,27,3.80
2009,04,03,01,28,3.70
2009,04,03,01,29,3.80
2009,04,03,01,30,3.70
2009,04,03,01,31,3.80
2009,04,03,01,32,3.80
2009,04,03,01,33,3.80
2009,04,03,01,34,3.80
2009,04,03,01,35,3.80
2009,04,03,01,36,3.80
2009,04,03,01,37,3.80
2009,04,03,01,38,3.80
2009,04,03,01,39,3.80
2009,04,03,01,40,3.80
2009,04,03,01,41,3.80
2009,04,03,01,42,3.80
2009,04,03,01,43,3.80
2009,04,03,01,44,3.80
2009,04,03,01,45,3.80
2009,04,03,01,46,3.80
2009,04,03,01,47,3.90
2009,04,03,01,48,3.90
2009,04,03,01,49,3.90
2009,04,03,01,50,3.90
2009,04,03,01,51,3.90
2009,04,03,01,52,3.90
2009,04,03,01,53,3.90
2009,04,03,01,54,3.90
2009,04,03,01,55,3.90
2009,04,03,01,56,3.90
2009,04,03,01,57,3.90
2009,04,03,01,58,3.90
2009,04,03,01,59,3.90
2009,04,03,02,00,3.90
2009,04,03,02,01,3.90
2009,04,03,02,02,3.80
2009,04,03,02,03,3.80
2009,04,03,02,04,3.80
2009,04,03,02,05,3.80
2009,04,03,02,06,3.80
2009,04,03,02,07,3.80
2009,04,03,02,08,3.80
2009,04,03,02,09,3.80
2009,04,03,02,10,3.80
2009,04,03,02,11,3.80
2009,04,03,02,12,3.80
2009,04,03,02,13,3.80
2009,04,03,02,14,3.80
2009,04,03,02,15,3.70
2009,04,03,02,16,3.70
2009,04,03,02,17,3.70
2009,04,03,02,18,3.80
2009,04,03,02,19,3.80
2009,04,03,02,20,3.70
2009,04,03,02,21,3.70
2009,04,03,02,22,3.70
2009,04,03,02,23,3.70
2009,04,03,02,24,3.70
2009,04,03,02,25,3.80
2009,04,03,02,26,3.80
2009,04,03,02,27,3.80
2009,04,03,02,28,3.80
2009,04,03,02,29,3.80
2009,04,03,02,30,3.80
2009,04,03,02,31,3.80
2009,04,03,02,32,3.70
2009,04,03,02,33,3.70
2009,04,03,02,34,3.70
2009,04,03,02,35,3.70
2009,04,03,02,36,3.70
2009,04,03,02,37,3.70
2009,04,03,02,38,3.70
2009,04,03,02,39,3.70
2009,04,03,02,40,3.70
2009,04,03,02,41,3.70
2009,04,03,02,42,3.70
2009,04,03,02,43,3.70
2009,04,03,02,44,3.70
2009,04,03,02,45,3.60
2009,04,03,02,46,3.60
2009,04,03,02,47,3.60
2009,04,03,02,48,3.60
2009,04,03,02,49,3.60
2009,04,03,02,50,3.60
2009,04,03,02,51,3.60
2009,04,03,02,52,3.60
2009,04,03,02,53,3.60
2009,04,03,02,54,3.60
2009,04,03,02,55,3.60
2009,04,03,02,56,3.60
2009,04,03,02,57,3.60
2009,04,03,02,58,3.60
2009,04,03,02,59,3.50
2009,04,03,03,00,3.50
2009,04,03,03,01,3.50
2009,04,03,03,02,3.50
2009,04,03,03,03,3.50
2009,04,03,03,04,3.50
2009,04,03,03,05,3.50
2009,04,03,03,06,3.50
2009,04,03,03,07,3.40
2009,04,03,03,08,3.40
2009,04,03,03,09,3.40
2009,04,03,03,10,3.40
2009,04,03,03,11,3.40
2009,04,03,03,12,3.40
2009,04,03,03,13,3.40
2009,04,03,03,14,3.50
2009,04,03,03,15,3.50
2009,04,03,03,16,3.50
2009,04,03,03,17,3.50
2009,04,03,03,18,3.50
2009,04,03,03,19,3.50
2009,04,03,03,20,3.50
2009,04,03,03,21,3.60
2009,04,03,03,22,3.60
2009,04,03,03,23,3.60
2009,04,03,03,24,3.60
2009,04,03,03,25,3.60
2009,04,03,03,26,3.60
2009,04,03,03,27,3.60
2009,04,03,03,28,3.60
2009,04,03,03,29,3.60
2009,04,03,03,30,3.60
2009,04,03,03,31,3.60
2009,04,03,03,32,3.60
2009,04,03,03,33,3.60
2009,04,03,03,34,3.60
2009,04,03,03,35,3.60
2009,04,03,03,36,3.60
2009,04,03,03,37,3.60
2009,04,03,03,38,3.50
2009,04,03,03,39,3.50
2009,04,03,03,40,3.50
2009,04,03,03,41,3.50
2009,04,03,03,42,3.50
2009,04,03,03,43,3.50
2009,04,03,03,44,3.50
2009,04,03,03,45,3.50
2009,04,03,03,46,3.50
2009,04,03,03,47,3.50
2009,04,03,03,48,3.50
2009,04,03,03,49,3.50
2009,04,03,03,50,3.50
2009,04,03,03,51,3.50
2009,04,03,03,52,3.60
2009,04,03,03,53,3.60
2009,04,03,03,54,3.60
2009,04,03,03,55,3.60
2009,04,03,03,56,3.60
2009,04,03,03,57,3.60
2009,04,03,03,58,3.60
2009,04,03,03,59,3.60
2009,04,03,04,00,3.60
2009,04,03,04,01,3.60
2009,04,03,04,02,3.60
2009,04,03,04,03,3.60
2009,04,03,04,04,3.60
2009,04,03,04,05,3.60
2009,04,03,04,06,3.60
2009,04,03,04,07,3.60
2009,04,03,04,08,3.60
2009,04,03,04,09,3.60
2009,04,03,04,10,3.60
2009,04,03,04,11,3.60
2009,04,03,04,12,3.60
2009,04,03,04,13,3.60
2009,04,03,04,14,3.60
2009,04,03,04,15,3.60
2009,04,03,04,16,3.60
2009,04,03,04,17,3.60
2009,04,03,04,18,3.60
2009,04,03,04,19,3.60
2009,04,03,04,20,3.60
2009,04,03,04,21,3.60
2009,04,03,04,22,3.60
2009,04,03,04,23,3.60
2009,04,03,04,24,3.50
2009,04,03,04,25,3.50
2009,04,03,04,26,3.50
2009,04,03,04,27,3.50
2009,04,03,04,28,3.50
2009,04,03,04,29,3.60
2009,04,03,04,30,3.60
2009,04,03,04,31,3.60
2009,04,03,04,32,3.60
2009,04,03,04,33,3.60
2009,04,03,04,34,3.60
2009,04,03,04,35,3.60
2009,04,03,04,36,3.60
2009,04,03,04,37,3.60
2009,04,03,04,38,3.60
2009,04,03,04,39,3.60
2009,04,03,04,40,3.60
2009,04,03,04,41,3.60
2009,04,03,04,42,3.60
2009,04,03,04,43,3.60
2009,04,03,04,44,3.60
2009,04,03,04,45,3.60
2009,04,03,04,46,3.60
2009,04,03,04,47,3.60
2009,04,03,04,48,3.60
2009,04,03,04,49,3.60
2009,04,03,04,50,3.50
2009,04,03,04,51,3.50
2009,04,03,04,52,3.50
2009,04,03,04,53,3.50
2009,04,03,04,54,3.50
2009,04,03,04,55,3.50
2009,04,03,04,56,3.50
2009,04,03,04,57,3.50
2009,04,03,04,58,3.50
2009,04,03,04,59,3.50
2009,04,03,05,00,3.50
2009,04,03,05,01,3.60
2009,04,03,05,02,3.60
2009,04,03,05,03,3.60
2009,04,03,05,04,3.60
2009,04,03,05,05,3.60
2009,04,03,05,06,3.70
2009,04,03,05,07,3.70
2009,04,03,05,08,3.70
2009,04,03,05,09,3.70
2009,04,03,05,10,3.70
2009,04,03,05,11,3.70
2009,04,03,05,12,3.70
2009,04,03,05,13,3.70
2009,04,03,05,14,3.70
2009,04,03,05,15,3.70
2009,04,03,05,16,3.70
2009,04,03,05,17,3.70
2009,04,03,05,18,3.70
2009,04,03,05,19,3.70
2009,04,03,05,20,3.70
2009,04,03,05,21,3.70
2009,04,03,05,22,3.70
2009,04,03,05,23,3.70
2009,04,03,05,24,3.70
2009,04,03,05,25,3.60
2009,04,03,05,26,3.60
2009,04,03,05,27,3.60
2009,04,03,05,28,3.60
2009,04,03,05,29,3.60
2009,04,03,05,30,3.60
2009,04,03,05,31,3.60
2009,04,03,05,32,3.60
2009,04,03,05,33,3.60
2009,04,03,05,34,3.60
2009,04,03,05,35,3.60
2009,04,03,05,36,3.60
2009,04,03,05,37,3.60
2009,04,03,05,38,3.60
2009,04,03,05,39,3.60
2009,04,03,05,40,3.60
2009,04,03,05,41,3.60
2009,04,03,05,42,3.60
2009,04,03,05,43,3.60
2009,04,03,05,44,3.60
2009,04,03,05,45,3.50
2009,04,03,05,46,3.50
2009,04,03,05,47,3.50
2009,04,03,05,48,3.50
2009,04,03,05,49,3.50
2009,04,03,05,50,3.50
2009,04,03,05,51,3.50
2009,04,03,05,52,3.50
2009,04,03,05,53,3.50
2009,04,03,05,54,3.60
2009,04,03,05,55,3.60
2009,04,03,05,56,3.60
2009,04,03,05,57,3.60
2009,04,03,05,58,3.60
2009,04,03,05,59,3.50
2009,04,03,06,00,3.50
2009,04,03,06,01,3.50
2009,04,03,06,02,3.50
2009,04,03,06,03,3.50
2009,04,03,06,04,3.50
2009,04,03,06,05,3.40
2009,04,03,06,06,3.40
2009,04,03,06,07,3.40
2009,04,03,06,08,3.40
2009,04,03,06,09,3.40
2009,04,03,06,10,3.50
2009,04,03,06,11,3.50
2009,04,03,06,12,3.50
2009,04,03,06,13,3.60
2009,04,03,06,14,3.50
2009,04,03,06,15,3.50
2009,04,03,06,16,3.50
2009,04,03,06,17,3.50
2009,04,03,06,18,3.50
2009,04,03,06,19,3.50
2009,04,03,06,20,3.50
2009,04,03,06,21,3.50
2009,04,03,06,22,3.50
2009,04,03,06,23,3.50
2009,04,03,06,24,3.40
2009,04,03,06,25,3.40
2009,04,03,06,26,3.40
2009,04,03,06,27,3.40
2009,04,03,06,28,3.40
2009,04,03,06,29,3.50
2009,04,03,06,30,3.50
2009,04,03,06,31,3.50
2009,04,03,06,32,3.50
2009,04,03,06,33,3.50
2009,04,03,06,34,3.40
2009,04,03,06,35,3.40
2009,04,03,06,36,3.50
2009,04,03,06,37,3.50
2009,04,03,06,38,3.50
2009,04,03,06,39,3.50
2009,04,03,06,40,3.60
2009,04,03,06,41,3.60
2009,04,03,06,42,3.60
2009,04,03,06,43,3.60
2009,04,03,06,44,3.60
2009,04,03,06,45,3.60
2009,04,03,06,46,3.60
2009,04,03,06,47,3.60
2009,04,03,06,48,3.50
2009,04,03,06,49,3.60
2009,04,03,06,50,3.50
2009,04,03,06,51,3.50
2009,04,03,06,52,3.50
2009,04,03,06,53,3.50
2009,04,03,06,54,3.50
2009,04,03,06,55,3.50
2009,04,03,06,56,3.50
2009,04,03,06,57,3.50
2009,04,03,06,58,3.60
2009,04,03,06,59,3.60
2009,04,03,07,00,3.60
2009,04,03,07,01,3.50
2009,04,03,07,02,3.50
2009,04,03,07,03,3.60
2009,04,03,07,04,3.50
2009,04,03,07,05,3.50
2009,04,03,07,06,3.60
2009,04,03,07,07,3.50
2009,04,03,07,08,3.50
2009,04,03,07,09,3.50
2009,04,03,07,10,3.50
2009,04,03,07,11,3.50
2009,04,03,07,12,3.50
2009,04,03,07,13,3.50
2009,04,03,07,14,3.50
2009,04,03,07,15,3.50
2009,04,03,07,16,3.50
2009,04,03,07,17,3.50
2009,04,03,07,18,3.50
2009,04,03,07,19,3.50
2009,04,03,07,20,3.50
2009,04,03,07,21,3.50
2009,04,03,07,22,3.50
2009,04,03,07,23,3.50
2009,04,03,07,24,3.50
2009,04,03,07,25,3.50
2009,04,03,07,26,3.50
2009,04,03,07,27,3.50
2009,04,03,07,28,3.50
2009,04,03,07,29,3.50
2009,04,03,07,30,3.50
2009,04,03,07,31,3.50
2009,04,03,07,32,3.50
2009,04,03,07,33,3.50
2009,04,03,07,34,3.50
2009,04,03,07,35,3.50
2009,04,03,07,36,3.50
2009,04,03,07,37,3.50
2009,04,03,07,38,3.50
2009,04,03,07,39,3.50
2009,04,03,07,40,3.50
2009,04,03,07,41,3.50
2009,04,03,07,42,3.50
2009,04,03,07,43,3.50
2009,04,03,07,44,3.50
2009,04,03,07,45,3.50
2009,04,03,07,46,3.50
2009,04,03,07,47,3.50
2009,04,03,07,48,3.60
2009,04,03,07,49,3.60
2009,04,03,07,50,3.60
2009,04,03,07,51,3.60
2009,04,03,07,52,3.60
2009,04,03,07,53,3.60
2009,04,03,07,54,3.60
2009,04,03,07,55,3.60
2009,04,03,07,56,3.60
2009,04,03,07,57,3.60
2009,04,03,07,58,3.60
2009,04,03,07,59,3.60
2009,04,03,08,00,3.60
2009,04,03,08,01,3.60
2009,04,03,08,02,3.60
2009,04,03,08,03,3.60
2009,04,03,08,04,3.60
2009,04,03,08,05,3.60
2009,04,03,08,06,3.60
2009,04,03,08,07,3.60
2009,04,03,08,08,3.60
2009,04,03,08,09,3.60
2009,04,03,08,10,3.60
2009,04,03,08,11,3.60
2009,04,03,08,12,3.60
2009,04,03,08,13,3.60
2009,04,03,08,14,3.60
2009,04,03,08,15,3.60
2009,04,03,08,16,3.60
2009,04,03,08,17,3.70
2009,04,03,08,18,3.70
2009,04,03,08,19,3.70
2009,04,03,08,20,3.70
2009,04,03,08,21,3.70
2009,04,03,08,22,3.70
2009,04,03,08,23,3.70
2009,04,03,08,24,3.70
2009,04,03,08,25,3.70
2009,04,03,08,26,3.70
2009,04,03,08,27,3.70
2009,04,03,08,28,3.70
2009,04,03,08,29,3.70
2009,04,03,08,30,3.70
2009,04,03,08,31,3.80
2009,04,03,08,32,3.80
2009,04,03,08,33,3.80
2009,04,03,08,34,3.80
2009,04,03,08,35,3.80
2009,04,03,08,36,3.80
2009,04,03,08,37,3.80
2009,04,03,08,38,3.90
2009,04,03,08,39,3.90
2009,04,03,08,40,3.90
2009,04,03,08,41,3.90
2009,04,03,08,42,3.90
2009,04,03,08,43,4.00
2009,04,03,08,44,4.00
2009,04,03,08,45,4.00
2009,04,03,08,46,4.00
2009,04,03,08,47,4.10
2009,04,03,08,48,4.10
2009,04,03,08,49,4.10
2009,04,03,08,50,4.10
2009,04,03,08,51,4.10
2009,04,03,08,52,4.10
2009,04,03,08,53,4.10
2009,04,03,08,54,4.10
2009,04,03,08,55,4.10
2009,04,03,08,56,4.20
2009,04,03,08,57,4.20
2009,04,03,08,58,4.20
2009,04,03,08,59,4.20
2009,04,03,09,00,4.20
2009,04,03,09,01,4.20
2009,04,03,09,02,4.20
2009,04,03,09,03,4.20
2009,04,03,09,04,4.20
2009,04,03,09,05,4.20
2009,04,03,09,06,4.20
2009,04,03,09,07,4.20
2009,04,03,09,08,4.20
2009,04,03,09,09,4.20
2009,04,03,09,10,4.20
2009,04,03,09,11,4.20
2009,04,03,09,12,4.20
2009,04,03,09,13,4.20
2009,04,03,09,14,4.20
2009,04,03,09,15,4.20
2009,04,03,09,16,4.20
2009,04,03,09,17,4.10
2009,04,03,09,18,4.10
2009,04,03,09,19,4.20
2009,04,03,09,20,4.20
2009,04,03,09,21,4.20
2009,04,03,09,22,4.20
2009,04,03,09,23,4.20
2009,04,03,09,24,4.20
2009,04,03,09,25,4.20
2009,04,03,09,26,4.20
2009,04,03,09,27,4.20
2009,04,03,09,28,4.20
2009,04,03,09,29,4.20
2009,04,03,09,30,4.20
2009,04,03,09,31,4.20
2009,04,03,09,32,4.20
2009,04,03,09,33,4.20
2009,04,03,09,34,4.20
2009,04,03,09,35,4.30
2009,04,03,09,36,4.30
2009,04,03,09,37,4.30
2009,04,03,09,38,4.30
2009,04,03,09,39,4.40
2009,04,03,09,40,4.40
2009,04,03,09,41,4.40
2009,04,03,09,42,4.40
2009,04,03,09,43,4.40
2009,04,03,09,44,4.40
2009,04,03,09,45,4.40
2009,04,03,09,46,4.40
2009,04,03,09,47,4.40
2009,04,03,09,48,4.50
2009,04,03,09,49,4.50
2009,04,03,09,50,4.50
2009,04,03,09,51,4.50
2009,04,03,09,52,4.50
2009,04,03,09,53,4.60
2009,04,03,09,54,4.60
2009,04,03,09,55,4.60
2009,04,03,09,56,4.60
2009,04,03,09,57,4.60
2009,04,03,09,58,4.60
2009,04,03,09,59,4.60
2009,04,03,10,00,4.60
2009,04,03,10,01,4.60
2009,04,03,10,02,4.60
2009,04,03,10,03,4.70
2009,04,03,10,04,4.70
2009,04,03,10,05,4.70
2009,04,03,10,06,4.70
2009,04,03,10,07,4.80
2009,04,03,10,08,4.80
2009,04,03,10,09,4.80
2009,04,03,10,10,4.80
2009,04,03,10,11,4.80
2009,04,03,10,12,4.80
2009,04,03,10,13,4.80
2009,04,03,10,14,4.80
2009,04,03,10,15,4.70
2009,04,03,10,16,4.70
2009,04,03,10,17,4.70
2009,04,03,10,18,4.70
2009,04,03,10,19,4.70
2009,04,03,10,20,4.80
2009,04,03,10,21,4.80
2009,04,03,10,22,4.80
2009,04,03,10,23,4.80
2009,04,03,10,24,4.90
2009,04,03,10,25,4.90
2009,04,03,10,26,4.90
2009,04,03,10,27,4.90
2009,04,03,10,28,4.90
2009,04,03,10,29,5.00
2009,04,03,10,30,5.00
2009,04,03,10,31,5.00
2009,04,03,10,32,5.10
2009,04,03,10,33,5.10
2009,04,03,10,34,5.20
2009,04,03,10,35,5.20
2009,04,03,10,36,5.20
2009,04,03,10,37,5.20
2009,04,03,10,38,5.20
2009,04,03,10,39,5.20
2009,04,03,10,40,5.20
2009,04,03,10,41,5.20
2009,04,03,10,42,5.20
2009,04,03,10,43,5.20
2009,04,03,10,44,5.20
2009,04,03,10,45,5.20
2009,04,03,10,46,5.20
2009,04,03,10,47,5.20
2009,04,03,10,48,5.30
2009,04,03,10,49,5.30
2009,04,03,10,50,5.30
2009,04,03,10,51,5.30
2009,04,03,10,52,5.30
2009,04,03,10,53,5.30
2009,04,03,10,54,5.40
2009,04,03,10,55,5.40
2009,04,03,10,56,5.30
2009,04,03,10,57,5.30
2009,04,03,10,58,5.30
2009,04,03,10,59,5.30
2009,04,03,11,00,5.30
2009,04,03,11,01,5.30
2009,04,03,11,02,5.30
2009,04,03,11,03,5.30
2009,04,03,11,04,5.30
2009,04,03,11,05,5.30
2009,04,03,11,06,5.30
2009,04,03,11,07,5.40
2009,04,03,11,08,5.40
2009,04,03,11,09,5.40
2009,04,03,11,10,5.40
2009,04,03,11,11,5.40
2009,04,03,11,12,5.40
2009,04,03,11,13,5.40
2009,04,03,11,14,5.40
2009,04,03,11,15,5.40
2009,04,03,11,16,5.40
2009,04,03,11,17,5.40
2009,04,03,11,18,5.60
2009,04,03,11,19,5.70
2009,04,03,11,20,5.70
2009,04,03,11,21,5.70
2009,04,03,11,22,5.70
2009,04,03,11,23,5.70
2009,04,03,11,24,5.70
2009,04,03,11,25,5.70
2009,04,03,11,26,5.60
2009,04,03,11,27,5.60
2009,04,03,11,28,5.60
2009,04,03,11,29,5.60
2009,04,03,11,30,5.60
2009,04,03,11,31,5.60
2009,04,03,11,32,5.60
2009,04,03,11,33,5.60
2009,04,03,11,34,5.60
2009,04,03,11,35,5.60
2009,04,03,11,36,5.60
2009,04,03,11,37,5.60
2009,04,03,11,38,5.60
2009,04,03,11,39,5.70
2009,04,03,11,40,5.80
2009,04,03,11,41,5.80
2009,04,03,11,42,5.80
2009,04,03,11,43,5.80
2009,04,03,11,44,5.90
2009,04,03,11,45,5.90
2009,04,03,11,46,5.90
2009,04,03,11,47,6.00
2009,04,03,11,48,6.10
2009,04,03,11,49,6.10
2009,04,03,11,50,6.20
2009,04,03,11,51,6.20
2009,04,03,11,52,6.20
2009,04,03,11,53,6.20
2009,04,03,11,54,6.20
2009,04,03,11,55,6.20
2009,04,03,11,56,6.20
2009,04,03,11,57,6.30
2009,04,03,11,58,6.30
2009,04,03,11,59,6.40
2009,04,03,12,00,6.40
2009,04,03,12,01,6.50
2009,04,03,12,02,6.50
2009,04,03,12,03,6.60
2009,04,03,12,04,6.50
2009,04,03,12,05,6.50
2009,04,03,12,06,6.40
2009,04,03,12,07,6.40
2009,04,03,12,08,6.40
2009,04,03,12,09,6.40
2009,04,03,12,10,6.50
2009,04,03,12,11,6.60
2009,04,03,12,12,6.70
2009,04,03,12,13,6.80
2009,04,03,12,14,6.80
2009,04,03,12,15,6.90
2009,04,03,12,16,6.90
2009,04,03,12,17,7.00
2009,04,03,12,18,7.00
2009,04,03,12,19,7.00
2009,04,03,12,20,7.00
2009,04,03,12,21,7.00
2009,04,03,12,22,7.00
2009,04,03,12,23,7.00
2009,04,03,12,24,7.10
2009,04,03,12,25,7.00
2009,04,03,12,26,7.10
2009,04,03,12,27,7.10
2009,04,03,12,28,7.20
2009,04,03,12,29,7.20
2009,04,03,12,30,7.30
2009,04,03,12,31,7.30
2009,04,03,12,32,7.40
2009,04,03,12,33,7.40
2009,04,03,12,34,7.40
2009,04,03,12,35,7.50
2009,04,03,12,36,7.40
2009,04,03,12,37,7.40
2009,04,03,12,38,7.50
2009,04,03,12,39,7.50
2009,04,03,12,40,7.60
2009,04,03,12,41,7.70
2009,04,03,12,42,7.70
2009,04,03,12,43,7.80
2009,04,03,12,44,7.90
2009,04,03,12,45,8.00
2009,04,03,12,46,8.10
2009,04,03,12,47,8.00
2009,04,03,12,48,7.90
2009,04,03,12,49,7.90
2009,04,03,12,50,7.80
2009,04,03,12,51,7.80
2009,04,03,12,52,7.80
2009,04,03,12,53,7.80
2009,04,03,12,54,7.80
2009,04,03,12,55,7.70
2009,04,03,12,56,7.70
2009,04,03,12,57,7.60
2009,04,03,12,58,7.60
2009,04,03,12,59,7.50
2009,04,03,13,00,7.50
2009,04,03,13,01,7.50
2009,04,03,13,02,7.60
2009,04,03,13,03,7.60
2009,04,03,13,04,7.60
2009,04,03,13,05,7.60
2009,04,03,13,06,7.60
2009,04,03,13,07,7.70
2009,04,03,13,08,7.80
2009,04,03,13,09,7.80
2009,04,03,13,10,7.90
2009,04,03,13,11,8.00
2009,04,03,13,12,8.00
2009,04,03,13,13,8.00
2009,04,03,13,14,8.00
2009,04,03,13,15,8.00
2009,04,03,13,16,8.00
2009,04,03,13,17,8.00
2009,04,03,13,18,8.10
2009,04,03,13,19,8.10
2009,04,03,13,20,8.10
2009,04,03,13,21,8.10
2009,04,03,13,22,8.00
2009,04,03,13,23,8.10
2009,04,03,13,24,8.10
2009,04,03,13,25,8.00
2009,04,03,13,26,8.00
2009,04,03,13,27,8.00
2009,04,03,13,28,8.10
2009,04,03,13,29,8.10
2009,04,03,13,30,8.20
2009,04,03,13,31,8.30
2009,04,03,13,32,8.30
2009,04,03,13,33,8.30
2009,04,03,13,34,8.30
2009,04,03,13,35,8.20
2009,04,03,13,36,8.20
2009,04,03,13,37,8.20
2009,04,03,13,38,8.20
2009,04,03,13,39,8.10
2009,04,03,13,40,8.10
2009,04,03,13,41,8.10
2009,04,03,13,42,8.00
2009,04,03,13,43,7.90
2009,04,03,13,44,7.90
2009,04,03,13,45,7.90
2009,04,03,13,46,7.90
2009,04,03,13,47,7.90
2009,04,03,13,48,7.90
2009,04,03,13,49,7.90
2009,04,03,13,50,8.00
2009,04,03,13,51,8.10
2009,04,03,13,52,8.20
2009,04,03,13,53,8.40
2009,04,03,13,54,8.50
2009,04,03,13,55,8.60
2009,04,03,13,56,8.60
2009,04,03,13,57,8.70
2009,04,03,13,58,8.70
2009,04,03,13,59,8.70
2009,04,03,14,00,8.70
2009,04,03,14,01,8.70
2009,04,03,14,02,8.70
2009,04,03,14,03,8.60
2009,04,03,14,04,8.50
2009,04,03,14,05,8.60
2009,04,03,14,06,8.60
2009,04,03,14,07,8.70
2009,04,03,14,08,8.70
2009,04,03,14,09,8.70
2009,04,03,14,10,8.60
2009,04,03,14,11,8.50
2009,04,03,14,12,8.50
2009,04,03,14,13,8.50
2009,04,03,14,14,8.50
2009,04,03,14,15,8.50
2009,04,03,14,16,8.50
2009,04,03,14,17,8.40
2009,04,03,14,18,8.50
2009,04,03,14,19,8.60
2009,04,03,14,20,8.60
2009,04,03,14,21,8.50
2009,04,03,14,22,8.50
2009,04,03,14,23,8.50
2009,04,03,14,24,8.60
2009,04,03,14,25,8.70
2009,04,03,14,26,8.80
2009,04,03,14,27,8.90
2009,04,03,14,28,8.90
2009,04,03,14,29,8.90
2009,04,03,14,30,8.90
2009,04,03,14,31,8.90
2009,04,03,14,32,8.80
2009,04,03,14,33,8.80
2009,04,03,14,34,8.70
2009,04,03,14,35,8.60
2009,04,03,14,36,8.50
2009,04,03,14,37,8.40
2009,04,03,14,38,8.30
2009,04,03,14,39,8.30
2009,04,03,14,40,8.20
2009,04,03,14,41,8.30
2009,04,03,14,42,8.40
2009,04,03,14,43,8.50
2009,04,03,14,44,8.60
2009,04,03,14,45,8.60
2009,04,03,14,46,8.70
2009,04,03,14,47,8.80
2009,04,03,14,48,8.80
2009,04,03,14,49,8.80
2009,04,03,14,50,8.80
2009,04,03,14,51,8.80
2009,04,03,14,52,8.80
2009,04,03,14,53,8.80
2009,04,03,14,54,8.90
2009,04,03,14,55,8.90
2009,04,03,14,56,8.80
2009,04,03,14,57,8.80
2009,04,03,14,58,8.80
2009,04,03,14,59,8.80
2009,04,03,15,00,8.80
2009,04,03,15,01,8.80
2009,04,03,15,02,8.80
2009,04,03,15,03,8.70
2009,04,03,15,04,8.70
2009,04,03,15,05,8.70
2009,04,03,15,06,8.70
2009,04,03,15,07,8.70
2009,04,03,15,08,8.70
2009,04,03,15,09,8.70
2009,04,03,15,10,8.70
2009,04,03,15,11,8.70
2009,04,03,15,12,8.80
2009,04,03,15,13,8.90
2009,04,03,15,14,9.00
2009,04,03,15,15,9.00
2009,04,03,15,16,9.00
2009,04,03,15,17,9.00
2009,04,03,15,18,8.90
2009,04,03,15,19,8.90
2009,04,03,15,20,8.90
2009,04,03,15,21,8.90
2009,04,03,15,22,8.90
2009,04,03,15,23,8.90
2009,04,03,15,24,8.90
2009,04,03,15,25,9.00
2009,04,03,15,26,9.10
2009,04,03,15,27,9.10
2009,04,03,15,28,9.20
2009,04,03,15,29,9.20
2009,04,03,15,30,9.30
2009,04,03,15,31,9.40
2009,04,03,15,32,9.40
2009,04,03,15,33,9.30
2009,04,03,15,34,9.30
2009,04,03,15,35,9.20
2009,04,03,15,36,9.10
2009,04,03,15,37,9.10
2009,04,03,15,38,9.10
2009,04,03,15,39,9.20
2009,04,03,15,40,9.20
2009,04,03,15,41,9.20
2009,04,03,15,42,9.20
2009,04,03,15,43,9.10
2009,04,03,15,44,9.20
2009,04,03,15,45,9.10
2009,04,03,15,46,9.10
2009,04,03,15,47,9.10
2009,04,03,15,48,9.10
2009,04,03,15,49,9.10
2009,04,03,15,50,9.10
2009,04,03,15,51,9.10
2009,04,03,15,52,9.00
2009,04,03,15,53,8.90
2009,04,03,15,54,8.90
2009,04,03,15,55,8.80
2009,04,03,15,56,8.80
2009,04,03,15,57,8.80
2009,04,03,15,58,8.80
2009,04,03,15,59,8.80
2009,04,03,16,00,8.80
2009,04,03,16,01,8.70
2009,04,03,16,02,8.70
2009,04,03,16,03,8.70
2009,04,03,16,04,8.70
2009,04,03,16,05,8.60
2009,04,03,16,06,8.60
2009,04,03,16,07,8.50
2009,04,03,16,08,8.50
2009,04,03,16,09,8.40
2009,04,03,16,10,8.40
2009,04,03,16,11,8.40
2009,04,03,16,12,8.40
2009,04,03,16,13,8.30
2009,04,03,16,14,8.30
2009,04,03,16,15,8.30
2009,04,03,16,16,8.30
2009,04,03,16,17,8.30
2009,04,03,16,18,8.30
2009,04,03,16,19,8.30
2009,04,03,16,20,8.40
2009,04,03,16,21,8.40
2009,04,03,16,22,8.40
2009,04,03,16,23,8.40
2009,04,03,16,24,8.40
2009,04,03,16,25,8.50
2009,04,03,16,26,8.50
2009,04,03,16,27,8.50
2009,04,03,16,28,8.50
2009,04,03,16,29,8.60
2009,04,03,16,30,8.60
2009,04,03,16,31,8.60
2009,04,03,16,32,8.60
2009,04,03,16,33,8.60
2009,04,03,16,34,8.70
2009,04,03,16,35,8.70
2009,04,03,16,36,8.70
2009,04,03,16,37,8.80
2009,04,03,16,38,8.80
2009,04,03,16,39,8.80
2009,04,03,16,40,8.90
2009,04,03,16,41,8.90
2009,04,03,16,42,8.90
2009,04,03,16,43,9.00
2009,04,03,16,44,9.10
2009,04,03,16,45,9.10
2009,04,03,16,46,9.10
2009,04,03,16,47,9.10
2009,04,03,16,48,9.10
2009,04,03,16,49,9.10
2009,04,03,16,50,9.10
2009,04,03,16,51,9.20
2009,04,03,16,52,9.20
2009,04,03,16,53,9.30
2009,04,03,16,54,9.30
2009,04,03,16,55,9.40
2009,04,03,16,56,9.40
2009,04,03,16,57,9.40
2009,04,03,16,58,9.50
2009,04,03,16,59,9.60
2009,04,03,17,00,9.60
2009,04,03,17,01,9.70
2009,04,03,17,02,9.70
2009,04,03,17,03,9.70
2009,04,03,17,04,9.70
2009,04,03,17,05,9.70
2009,04,03,17,06,9.70
2009,04,03,17,07,9.60
2009,04,03,17,08,9.60
2009,04,03,17,09,9.60
2009,04,03,17,10,9.60
2009,04,03,17,11,9.60
2009,04,03,17,12,9.60
2009,04,03,17,13,9.60
2009,04,03,17,14,9.70
2009,04,03,17,15,9.80
2009,04,03,17,16,9.80
2009,04,03,17,17,9.90
2009,04,03,17,18,9.90
2009,04,03,17,19,10.00
2009,04,03,17,20,10.00
2009,04,03,17,21,10.10
2009,04,03,17,22,10.20
2009,04,03,17,23,10.20
2009,04,03,17,24,10.20
2009,04,03,17,25,10.20
2009,04,03,17,26,10.20
2009,04,03,17,27,10.30
2009,04,03,17,28,10.30
2009,04,03,17,29,10.20
2009,04,03,17,30,10.20
2009,04,03,17,31,10.20
2009,04,03,17,32,10.20
2009,04,03,17,33,10.20
2009,04,03,17,34,10.20
2009,04,03,17,35,10.20
2009,04,03,17,36,10.10
2009,04,03,17,37,10.00
2009,04,03,17,38,9.90
2009,04,03,17,39,9.80
2009,04,03,17,40,9.80
2009,04,03,17,41,9.70
2009,04,03,17,42,9.70
2009,04,03,17,43,9.70
2009,04,03,17,44,9.70
2009,04,03,17,45,9.70
2009,04,03,17,46,9.70
2009,04,03,17,47,9.70
2009,04,03,17,48,9.70
2009,04,03,17,49,9.70
2009,04,03,17,50,9.70
2009,04,03,17,51,9.70
2009,04,03,17,52,9.70
2009,04,03,17,53,9.70
2009,04,03,17,54,9.70
2009,04,03,17,55,9.80
2009,04,03,17,56,9.70
2009,04,03,17,57,9.70
2009,04,03,17,58,9.70
2009,04,03,17,59,9.70
2009,04,03,18,00,9.70
2009,04,03,18,01,9.80
2009,04,03,18,02,9.80
2009,04,03,18,03,9.80
2009,04,03,18,04,9.80
2009,04,03,18,05,9.90